Cloud_Cover
100 100 100 100 100 100 100 100 100 100 100 100 100 100 100 100 61 8 0 0 100 100 100 100 100 100 100 100 100 100 100 95 100 100 99 100 100 100 100 100 100 100 100 100
100 100 100 100 100 100 100 100 100 100 100 100 100 100 100 100 89 68 21 94 20 75 100 99 99 92 98 100 100 100 100 100 100 100 100 100 100 100 100 100 100 100 100 100
100 100 100 100 85 100 100 100 100 100 100 100 100 100 93 45 71 5 5 5 3 31 26 100 92 97 59 94 100 100 100 100 100 100 100 100 100 100 100 100 100 100 100 100
100 100 100 94 99 100 100 100 100 100 100 100 100 100 84 100 62 5 1 2 5 0 0 73 100 100 99 100 100 100 100 100 100 100 100 100 100 100 100 100 100 100 100 100
100 96 47 70 22 100 100 100 100 100 100 100 100 100 100 8 22 5 1 0 0 0 0 0 2 98 100 100 100 100 100 100 100 100 100 100 100 100 100 100 100 100 100 100
100 100 85 98 66 43 100 96 100 100 100 100 100 100 100 68 92 80 3 0 0 0 0 0 0 3 100 100 100 100 100 100 100 100 100 100 100 100 100 100 100 100 100 100
100 100 100 77 30 94 100 100 100 100 100 100 84 100 100 99 98 38 4 0 0 0 0 0 0 0 9 100 100 100 100 100 100 100 100 100 100 99 100 100 100 100 100 100
100 59 38 62 19 85 100 84 100 11 61 100 100 100 100 43 65 6 0 0 0 0 0 0 0 0 5 81 100 100 100 100 100 100 100 100 100 100 100 100 95 100 100 100
70 96 100 51 5 98 96 22 46 64 31 100 46 89 100 5 1 3 2 1 0 0 0 0 0 0 5 1 5 99 100 100 100 100 100 100 100 100 100 100 100 100 95 96
16 93 72 5 4 74 54 6 4 5 89 14 89 18 99 31 5 5 5 4 0 0 0 0 0 0 0 3 3 5 100 100 100 100 100 100 100 100 100 99 100 100 100 100
100 100 98 46 46 100 100 100 57 85 7 5 5 34 46 100 7 5 5 4 3 1 0 0 0 0 0 0 5 44 74 100 100 100 100 100 100 100 100 100 100 100 100 100
48 95 95 94 76 88 100 100 100 100 100 100 100 100 100 100 33 5 6 5 8 9 0 0 0 0 3 1 5 60 100 100 100 100 100 100 100 100 100 100 100 100 100 100
5 6 67 100 100 29 59 92 100 100 100 100 100 97 100 91 84 12 35 9 6 5 1 0 0 1 5 8 30 10 81 100 100 100 93 100 100 100 100 100 100 100 100 100
26 4 4 5 49 100 84 29 100 100 100 100 100 100 100 100 92 100 46 5 21 25 5 4 0 2 9 4 7 89 100 100 100 100 100 84 100 100 100 100 100 100 74 55
30 44 5 5 29 11 63 84 100 100 100 100 100 100 100 100 100 100 97 31 69 81 12 5 5 5 5 30 5 4 6 97 100 100 100 100 100 65 100 100 100 79 87 100
48 80 66 59 83 62 11 45 99 100 100 100 31 55 80 51 53 76 57 55 83 99 88 18 6 5 5 5 94 54 56 30 5 5 41 58 100 100 80 26 70 68 94 60
62 51 28 5 5 94 100 100 88 17 58 21 52 99 23 29 5 61 91 83 97 100 88 99 96 61 8 99 90 52 86 100 100 98 81 11 4 17 84 100 100 100 100 100
44 5 16 5 5 5 0 23 72 100 100 100 61 96 100 76 42 13 32 5 48 34 32 5 5 10 6 10 95 100 59 65 83 13 12 8 5 4 3 0 22 19 83 63
5 5 5 5 39 3 5 6 26 88 94 81 100 100 100 100 100 100 97 23 6 55 33 5 5 5 5 67 100 100 99 43 26 25 5 5 4 4 4 5 5 100 58 21
0 4 15 5 62 5 5 17 72 21 84 100 100 98 86 34 19 95 20 71 95 100 43 3 2 5 15 100 94 62 19 11 6 22 18 5 5 5 56 35 62 100 74 65
3 5 5 5 71 28 46 3 11 40 59 100 90 86 97 66 35 50 5 5 5 5 7 27 6 5 5 5 3 1 5 13 64 77 64 22 5 97 90 89 78 100 100 93
3 5 5 5 10 68 99 98 53 38 100 100 100 100 100 99 52 5 5 5 25 95 20 70 100 100 100 71 36 77 98 80 88 100 100 76 76 88 26 100 100 100 100 100
5 5 5 27 5 91 81 62 100 74 100 100 100 100 100 100 100 100 90 16 5 60 100 82 85 100 100 100 100 100 100 100 100 100 100 100 100 100 100 100 100 100 100 100
5 5 5 5 5 5 5 24 28 5 5 46 99 100 100 100 100 100 100 100 100 82 42 6 14 22 50 83 98 100 100 100 100 100 100 100 100 98 100 100 100 100 100 100
4 5 23 5 5 5 5 5 34 33 95 100 71 100 100 100 100 99 100 100 100 100 100 92 74 90 82 97 100 100 100 100 100 98 100 100 100 100 100 100 100 100 100 100
66 84 25 43 5 33 5 34 10 5 5 75 86 99 97 100 100 100 100 100 100 100 100 100 100 100 99 100 96 90 94 100 100 100 95 100 100 100 100 100 100 100 100 100